TimeCST,TemperatureF,Dew PointF,Humidity,Sea Level PressureIn,VisibilityMPH,Wind Direction,Wind SpeedMPH,Gust SpeedMPH,PrecipitationIn,Events,Conditions,WindDirDegrees,DateUTC
12:53 AM,55.9,54.0,93,30.19,0.2,Calm,Calm,-,N/A,Fog,Fog,0,2012-12-05 06:53:00
1:53 AM,53.1,52.0,96,30.19,0.5,Calm,Calm,-,N/A,Fog,Fog,0,2012-12-05 07:53:00
2:53 AM,52.0,50.0,93,30.18,0.2,Calm,Calm,-,N/A,Fog,Fog,0,2012-12-05 08:53:00
3:53 AM,50.0,48.9,96,30.17,0.5,Calm,Calm,-,N/A,Fog,Fog,0,2012-12-05 09:53:00
4:53 AM,50.0,48.9,96,30.19,0.2,Calm,Calm,-,N/A,Fog,Fog,0,2012-12-05 10:53:00
5:24 AM,51.8,51.8,100,30.20,1.0,Calm,Calm,-,N/A,,Mist,0,2012-12-05 11:24:00
5:53 AM,51.1,50.0,96,30.19,0.8,ENE,3.5,-,N/A,,Mist,70,2012-12-05 11:53:00
6:00 AM,51.8,50.0,94,30.20,0.5,ENE,4.6,-,N/A,Fog,Fog,70,2012-12-05 12:00:00
6:07 AM,51.8,48.2,88,30.20,1.0,ENE,4.6,-,N/A,,Mist,70,2012-12-05 12:07:00
6:16 AM,51.8,48.2,88,30.19,3.0,ENE,3.5,-,N/A,,Mostly Cloudy,60,2012-12-05 12:16:00
6:31 AM,51.8,50.0,94,30.20,5.0,Calm,Calm,-,N/A,,Scattered Clouds,0,2012-12-05 12:31:00
6:53 AM,52.0,50.0,93,30.20,7.0,NE,3.5,-,N/A,,Clear,50,2012-12-05 12:53:00
8:53 AM,62.1,57.0,84,30.21,10.0,Calm,Calm,-,N/A,,Clear,0,2012-12-05 14:53:00
9:53 AM,68.0,60.1,76,30.21,10.0,Calm,Calm,-,N/A,,Clear,0,2012-12-05 15:53:00
10:53 AM,71.1,60.1,68,30.19,10.0,SE,4.6,-,N/A,,Clear,130,2012-12-05 16:53:00
11:53 AM,73.9,60.1,62,30.14,10.0,South,4.6,-,N/A,,Partly Cloudy,170,2012-12-05 17:53:00
12:53 PM,73.0,59.0,61,30.11,10.0,SSE,5.8,-,N/A,,Mostly Cloudy,150,2012-12-05 18:53:00
1:53 PM,73.0,57.9,59,30.09,10.0,SE,3.5,-,N/A,,Clear,140,2012-12-05 19:53:00
2:53 PM,73.0,57.9,59,30.09,10.0,SSE,3.5,-,N/A,,Clear,160,2012-12-05 20:53:00
3:53 PM,72.0,57.9,61,30.08,10.0,Calm,Calm,-,N/A,,Clear,0,2012-12-05 21:53:00
4:53 PM,64.0,60.1,87,30.09,10.0,Calm,Calm,-,N/A,,Clear,0,2012-12-05 22:53:00
5:53 PM,61.0,57.9,90,30.10,10.0,Calm,Calm,-,N/A,,Clear,0,2012-12-05 23:53:00
6:53 PM,60.1,57.0,90,30.10,10.0,Calm,Calm,-,N/A,,Clear,0,2012-12-06 00:53:00
7:53 PM,57.9,55.9,93,30.10,9.0,Calm,Calm,-,N/A,,Clear,0,2012-12-06 01:53:00
8:39 PM,55.4,53.6,94,30.11,1.8,Calm,Calm,-,N/A,,Clear,0,2012-12-06 02:39:00
8:48 PM,55.4,53.6,94,30.10,4.0,Calm,Calm,-,N/A,,Clear,0,2012-12-06 02:48:00
8:53 PM,55.9,54.0,93,30.10,10.0,Calm,Calm,-,N/A,,Clear,0,2012-12-06 02:53:00
9:53 PM,55.0,54.0,96,30.10,10.0,Calm,Calm,-,N/A,,Clear,0,2012-12-06 03:53:00
10:53 PM,53.1,51.1,93,30.10,8.0,Calm,Calm,-,N/A,,Clear,0,2012-12-06 04:53:00
11:27 PM,53.6,51.8,94,30.10,1.8,Calm,Calm,-,N/A,,Scattered Clouds,0,2012-12-06 05:27:00
11:29 PM,51.8,51.8,100,30.09,2.0,Calm,Calm,-,N/A,,Scattered Clouds,0,2012-12-06 05:29:00
11:37 PM,51.8,50.0,94,30.09,5.0,Calm,Calm,-,N/A,,Scattered Clouds,0,2012-12-06 05:37:00
11:53 PM,52.0,50.0,93,30.09,9.0,Calm,Calm,-,N/A,,Mostly Cloudy,0,2012-12-06 05:53:00